Zurück zum Katalog

FENGYUN 1C DEB

AktivPO
NORAD 37719·DEBRIS·🇨🇳 China

Gestartet May 10, 1999 von Taiyuan Satellite Launch Center

Loading…

Nächste Überflüge (nächste 24 Stunden)

TLE

VeraltetSource: Space-Track

Epoche: Aug 26, 2026, 23:56 UTC

1 37719U 99025EML 26238.99743484  .00002380  00000-0  51890-3 0  9990
2 37719  99.4782 305.6856 0043235 211.2087 273.7744 14.58494516 39866

Verfolge FENGYUN 1C DEB in Echtzeit mit AllMySat

Download on the App Store